www.pogodaiklimat.ru

Погода и климат >> Архив погоды >> Россия >> Саратовская область >> Маркс


ПОГОДА в Маркс

  • Прогноз погоды в Маркс
  • Монитор погоды в Маркс

АРХИВ ПОГОДЫ в Маркс

Время (UTC), дата Ветер
(напр.,м/с)
 
Видим.   Явления Облачность Т
(С)
Тd
(С)
f
(%)
Тe
(С)
Тes
(С)
Комфортность P
(гПа)
Po
(гПа)
Тmin
(С)
Tmax
(С)
R
(мм)
R24
(мм)
S
(см)
15 11.08 СЗ 4
{11}
50 км {ливн. осадки} 9/9 1000 м
[Cb cap]
+17.9 +13.2 74 +18 +18 1007.0 1003.3 +20.2 3
18 11.08 СЗ 4
{11}
50 км {ливн. осадки} 8/3 1000 м
[Sc Ac trans]
+15.7 +12.5 81 +15 +15 1008.9 1005.2
21 11.08 СЗ 4
{12}
50 км 10/4 1000 м
[Sc Ac und]
+15.1 +11.6 80 +14 +14 1009.2 1005.5
00 12.08 СЗ 4
{10}
50 км 9/0
[Ac trans]
+14.4 +10.2 76 +13 +13 1009.6 1005.8
03 12.08 С 3
{11}
50 км 3/0
[Ac trans]
+13.3 +8.9 75 +12 +13 1010.9 1007.1 +13.3
06 12.08 С 4
{13}
50 км 9/9 900 м
[Sc]
+14.7 +8.8 68 +14 +14 1012.3 1008.5
09 12.08 СЗ 4
{11}
50 км 8/8 1000 м
[Cu Sc]
+17.7 +9.1 57 +17 +19 1012.7 1008.9
12 12.08 СЗ 4
{11}
50 км 4/4 1000 м
[Cu med, cong]
+19.4 +8.3 49 +20 +24 1012.9 1009.2
15 12.08 СЗ 3-10
{10}
50 км 1/1 1000 м
[Cu hum]
+18.8 +6.9 46 +19 +20 1013.2 1009.5 +19.6
18 12.08 СЗ 2
{10}
50 км ясно +16.0 +8.5 61 +16 +16 1014.2 1010.5
21 12.08 С 2 50 км ясно +12.1 +6.9 70 +11 +11 1015.1 1011.3
00 13.08 СЗ 2 50 км ясно +10.6 +5.4 70 +9 +9 1016.0 1012.2
03 13.08 С 2 50 км ясно +10.7 +5.8 72 +10 +10 1016.7 1012.9 +9.0
06 13.08 С 4 50 км 3/0
[Ci fib]
+16.2 +6.3 52 +16 +21 1016.4 1012.7
09 13.08 С 4
{11}
50 км 3/0
[Ci fib]
+19.7 +4.0 35 +20 +29 1015.4 1011.7
12 13.08 С 4
{11}
50 км ясно +22.1 +3.0 28 +22 +27 комфорт 1015.2 1011.5
15 13.08 СЗ 3
{10}
50 км ясно +21.4 +5.3 35 +22 +22 комфорт 1015.0 1011.3 +22.4
18 13.08 С 1 50 км ясно +14.5 +7.3 62 +15 +15 1016.1 1012.3
21 13.08 штиль 0 20 км ясно +11.7 +7.4 75 +11 +11 1016.5 1012.7
00 14.08 СЗ 1 20 км ясно +10.7 +8.7 87 +10 +10 1016.3 1012.4
03 14.08 ЮЗ 1 50 км 3/0
[Ci fib]
+11.2 +8.3 82 +11 +12 1017.0 1013.2 +10.0
06 14.08 ЮЗ 1 50 км 9/0
[Ac trans Ci fib]
+19.9 +8.2 47 +22 +29 комфорт 1016.3 1012.6
09 14.08 ЮЗ 1 50 км 9/0
[Ac trans Ci fib]
+24.5 +8.0 35 +25 +34 комфорт 1014.6 1010.9
12 14.08 Ю 2 50 км 9/0
[Ac trans Ci fib]
+28.7 +12.0 36 +30 +35 жарко 1012.7 1009.1
15 14.08 ЮВ 1 20 км 8/4 1000 м
[Sc Ac trans Ci fib]
+28.8 +13.6 39 +30 +31 жарко 1011.8 1008.2 +29.6
18 14.08 В 3 20 км 3/0
[Ac trans]
+22.3 +13.3 57 +25 +25 комфорт 1012.9 1009.2
21 14.08 В 3 20 км ясно +20.2 +11.5 57 +22 +22 комфорт 1013.5 1009.8
00 15.08 В 2 20 км ясно +18.9 +9.5 54 +20 +20 1014.1 1010.4
03 15.08 В 3 20 км ясно +18.2 +9.7 58 +19 +19 1015.4 1011.7 +17.7
06 15.08 В 2 50 км ясно +24.5 +8.6 36 +25 +34 комфорт 1015.9 1012.3
09 15.08 Ю 2 50 км ясно +30.5 +9.6 27 +30 +44 жарко 1015.4 1011.8
12 15.08 ЮВ 1 50 км ясно +32.3 +12.7 30 +33 +42 жарко 1014.4 1010.8
15 15.08 СВ 3 50 км ясно +29.6 +13.8 38 +31 +32 жарко 1014.0 1010.4 +32.6
18 15.08 СВ 2 50 км ясно +23.9 +15.3 59 +27 +27 жарко 1014.7 1011.1
21 15.08 В 3 50 км ясно +21.6 +14.8 65 +25 +25 комфорт 1015.2 1011.5
00 16.08 В 1 50 км ясно +19.3 +12.8 66 +22 +22 комфорт 1015.2 1011.5
03 16.08 СВ 2 50 км 8/0
[Ci fib]
+19.7 +14.2 71 +22 +23 комфорт 1015.1 1011.4 +18.6
06 16.08 В 3 50 км 8/0
[Ci fib]
+24.4 +14.6 54 +27 +33 жарко 1014.6 1010.9
09 16.08 Ю 4 20 км 9/0
[Ci fib]
+31.8 +12.9 32 +33 +40 жарко 1012.2 1008.6
12 16.08 ЮЗ 5
{13}
20 км 9/0
[Ac trans Ci fib]
+32.3 +12.1 29 +33 +35 жарко 1011.8 1008.3
15 16.08 ЮЗ 1 20 км 9/0
[Ci fib]
+29.5 +12.6 35 +31 +31 жарко 1011.6 1008.0 +32.8
18 16.08 штиль 0 20 км 10/0
[Ac lent Ci sp]
+23.5 +14.4 57 +26 +26 жарко 1012.4 1008.7
21 16.08 В 1 20 км 9/0
[Ci fib]
+21.6 +13.1 58 +24 +24 комфорт 1012.4 1008.7
00 17.08 Ю 1 20 км 10/0
[Ac trans Ci sp]
+21.5 +9.3 46 +23 +23 комфорт 1012.8 1009.1
03 17.08 штиль 0 20 км 9/0
[Ac cast Cc]
+21.4 +10.7 50 +23 +24 комфорт 1013.3 1009.6 +20.4
06 17.08 Ю 1 20 км 9/0
[Ac und]
+25.3 +12.7 46 +27 +31 жарко 1013.8 1010.2
09 17.08 Ю 2 20 км 9/0
[Ci fib]
+30.2 +12.2 33 +31 +42 жарко 1013.3 1009.8
12 17.08 В 1 50 км 10/0
[Ac und]
+31.3 +9.4 26 +31 +33 жарко 1012.4 1008.8
15 17.08 В 3 50 км 9/0
[Ac trans Ci fib]
+28.7 +10.5 32 +29 +29 жарко 1011.0 1007.4 +32.7
18 17.08 В 2 20 км 10/0
[Ac trans Ci sp]
+25.1 +10.6 40 +26 +26 жарко 1010.9 1007.3
21 17.08 Ю 1 20 км 10/0
[Ac und]
+26.0 +7.4 31 +26 +26 жарко 1011.4 1007.7
00 18.08 ЮВ 1 20 км 10/0
[Ac und]
+23.5 +8.9 39 +24 +24 комфорт 1012.2 1008.5
03 18.08 В 1 20 км 10/0
[Ac und]
+21.5 +8.5 43 +23 +23 комфорт 1012.7 1009.0 +20.8
06 18.08 Ю 1 20 км 10/0
[Ac und]
+23.7 +11.5 46 +25 +28 комфорт 1013.7 1010.1
09 18.08 В 1 20 км 10/0
[Ac und]
+25.5 +14.7 51 +28 +33 жарко 1014.3 1010.7
12 18.08 ЮВ 2 50 км 9/0
[Ac trans Ci fib]
+31.8 +9.0 24 +31 +36 жарко 1014.3 1010.7

 

Местоположение метеостанции Маркс (Саратовская область, Россия): широта 51.70 долгота 46.73 высота над уровнем моря 29 м.

В архиве по умолчанию представлена погода в Маркс за последнюю неделю. Архивные данные за месяц целиком и за предыдущие месяцы, начиная с января 2011 года, Вы можете получить, выбрав интересующий диапазон дат из раскрывающегося списка и нажав кнопку "Ввод!".


*Определитесь, кто Вы:
робот инопланетянин человек

Внимание! Время в таблицах - всемирное. Для получения местного времени необходимо прибавить поправку, которая равна 4 ч.

Смотрите также архив погоды в соседних городах и на ближайших метеорологических станциях:

Погода в Саратове (Саратовская область, Россия) (50 км)
Погода в Саратове ЮВ (Саратовская область, Россия) (52 км)
Погода в Карабулаке (Саратовская область, Россия) (74 км)
Погода в Балаково (Саратовская область, Россия) (83 км)
Погода в Красном Куте (Саратовская область, Россия) (85 км)
Погода в Октябрьском Городке (Саратовская область, Россия) (89 км)
Погода в Петровске (Саратовская область, Россия) (112 км)
Погода в Ершове (Саратовская область, Россия) (115 км)
Погода в Сплавнухе (Саратовская область, Россия) (117 км)
Погода в Аткарске (Саратовская область, Россия) (118 км)

Пояснения к столбцам:

Ветер - указаны скорость ветра в м/с - средняя за 10 мин, порывы в срок и между сроками (в фигурных скобках) и направление, откуда дует ветер: С - северный, СВ - северо-восточный, В - восточный, ЮВ - юго-восточный, Ю - южный, ЮЗ - юго-западный, З - западный, СЗ - северо-западный.
Видимость - горизонтальная дальность видимости в метрах или километрах. При видимости от 1 до 10 км при отсутствии осадков обычно наблюдается дымка, при ухудшении видимости до 1 км и менее - туман. В сухую погоду видимость может ухудшаться дымом, пылью или мглою.
Явления - указаны атмосферные явления, наблюдавшиеся в срок или в последний час перед сроком; фигурными скобками обозначены явления, наблюдавшиеся между сроками (за 1-3 часа до срока); квадратными скобками обозначены град или гололедные отложения с указанием их диаметра в мм.
Облачность - указаны через наклонную черту общая и нижняя облачность в баллах и высота нижней границы облаков в метрах; квадратными скобками обозначены формы облаков: Ci - перистые, Cs - перисто-слоистые, Cc - перисто-кучевые, Ac - высококучевые, As - высокослоистые, Sc - слоисто-кучевые, Ns - слоисто-дождевые, Cu - кучевые, Cb - кучево-дождевые. Подробнее классификацию облаков см. в Атласе облаков (PDF).
T - Температура воздуха - температура, измеренная на высоте 2 м над землей.
Td - Температура точки росы - температура, при понижении до которой содержащийся в воздухе водяной пар достигнет насыщения.
f - Относительная влажность воздуха - влажноcть воздуха, измеренная на высоте 2 м над землей.
Te - Эффективная температура - температура, которую ощущает одетый по сезону человек в тени. Характеристика душности погоды. При расчете учитывается влияние влажности воздуха и скорости ветра на теплоощущения человека.
Tes - Эффективная температура на солнце - температура, которую ощущает человек, с поправкой на солнечный нагрев. Характеристика знойности погоды. Зависит от высоты солнца над горизонтом, облачности и скорости ветра. Ночью, в пасмурную погоду, а также при ветре 12 м/с и более поправка равна нулю.
P - Атмосферное давление - приведенное к уровню моря атмосферное давление.
Po - Атмосферное давление - измеренное на уровне метеостанции атмосферное давление.
Tmin - Минимальная температура - минимум температуры воздуха на высоте 2 м над землей.
Tmax - Максимальная температура - максимум температуры воздуха на высоте 2 м над землей.
R - Количество осадков - Количество выпавших осадков за период времени, мм. При наведении курсора мыши на число - период времени, за который выпало указанное количество осадков.
R24 - Количество осадков - Количество выпавших осадков за 24 часа, мм.
S - Снежный покров - Высота снежного покрова, см. При наведении курсора мыши на число - состояние снежного покрова и степень покрытия местности в баллах.